Location: *
(58.4167°N, 22.5000°E)
Time: 02:04:14
(UTC+00:00)

Geosat - Pass Details

Date: 22 September 2019
Orbit: 763 x 766 km, 108.0° (Epoch: 18 October)

Event Time Altitude Azimuth Distance (km) Brightness Sun altitude
Exits shadow 20:34:16 62° 40° (NE) 866 4.2 -27.6°
Drops below altitude 10° 20:39:09 10° 326° (NNW) 2,317 7.5 -27.9°
Sets 20:41:28 0° 324° (NW) 3,247 8.5 -28.1°
